Date String (YYYY-MM-DD hh:mm:ss) UTC,Instrument flags,absolute air pressure of the measurement (hPa),sample flow rate (lpm),inlet stack bypass flow (lpm),air temperature of the measurement (°C),ambient temperature measured by the external sensor (°C),aerosol sample conditioner tube jacket temperature (°C),OPC LED temperature (°C),internal box temperature (°C),relative humidity of the measurement (%),span deviation,mass concentration of particles derived from Lorenz-Mie calculation of OPC scattering (μg/m³),mass concentration of particles derived from Lorenz-Mie calculation of OPC scattering (μg/m³),mass concentration of particles derived from Lorenz-Mie calculation of OPC scattering (μg/m³)
DateTimeUTC,F1_M11,P_M11,Q1_M11,Q2_M11,T1_M11,T2_M11,T3_M11,T4_M11,T5_M11,U1_M11,ZSPAN_M11,X2_M11,X0_M11,X1_M11
2024-02-27 01:00:00,SystemResetWarning,0815.5,5.00,000.00,024.2,023.2,000.0,032.6,026.0,07.2,0000.0,0001.85,0008.43,0000.85
2024-02-27 01:01:00,SystemResetWarning,0815.4,5.00,000.00,024.2,023.2,000.0,032.6,026.0,07.2,0000.0,0001.82,0008.50,0000.84
2024-02-27 01:02:00,SystemResetWarning,0815.4,5.00,000.00,024.2,023.2,000.0,032.6,026.0,07.2,0000.0,0001.81,0007.81,0000.84
2024-02-27 01:03:00,SystemResetWarning,0815.4,4.99,000.00,024.2,023.2,000.0,032.6,025.9,07.2,0000.0,0001.83,0007.36,0000.84
2024-02-27 01:04:00,SystemResetWarning,0815.4,4.99,000.00,024.2,023.2,000.0,032.5,025.9,07.3,0000.0,0001.85,0007.62,0000.84
2024-02-27 01:05:00,SystemResetWarning,0815.4,5.00,000.00,024.2,023.2,000.0,032.5,025.9,07.3,0000.0,0001.80,0008.06,0000.83
2024-02-27 01:06:00,SystemResetWarning,0815.5,5.02,000.00,024.2,023.2,000.0,032.5,025.9,07.3,0000.0,0001.76,0007.93,0000.82
2024-02-27 01:07:00,SystemResetWarning,0815.5,4.98,000.00,024.1,023.2,000.0,032.5,025.9,07.4,0000.0,0001.75,0007.90,0000.82
2024-02-27 01:08:00,SystemResetWarning,0815.6,5.00,000.00,024.1,023.2,000.0,032.5,025.9,07.4,0000.0,0001.74,0007.73,0000.81
2024-02-27 01:09:00,SystemResetWarning,0815.6,5.01,000.00,024.1,023.2,000.0,032.5,025.9,07.4,0000.0,0001.76,0007.70,0000.80
2024-02-27 01:10:00,SystemResetWarning,0815.6,5.01,000.00,024.1,023.2,000.0,032.5,025.9,07.5,0000.0,0001.72,0006.97,0000.79
2024-02-27 01:11:00,SystemResetWarning,0815.6,5.00,000.00,024.1,023.2,000.0,032.5,025.9,07.4,0000.0,0001.68,0006.13,0000.79
2024-02-27 01:12:00,SystemResetWarning,0815.6,4.99,000.00,024.1,023.2,000.0,032.5,025.9,07.5,0000.0,0001.69,0006.28,0000.79
2024-02-27 01:13:00,SystemResetWarning,0815.6,5.00,000.00,024.1,023.2,000.0,032.5,025.9,07.4,0000.0,0001.63,0006.01,0000.78
2024-02-27 01:14:00,SystemResetWarning,0815.5,4.99,000.00,024.1,023.2,000.0,032.5,025.9,07.4,0000.0,0001.68,0006.48,0000.78
2024-02-27 01:15:00,SystemResetWarning,0815.6,5.00,000.00,024.1,023.2,000.0,032.5,025.9,07.4,0000.0,0001.75,0006.88,0000.78
2024-02-27 01:16:00,SystemResetWarning,0815.6,5.01,000.00,024.1,023.2,000.0,032.5,025.9,07.4,0000.0,0001.75,0005.69,0000.78
2024-02-27 01:17:00,SystemResetWarning,0815.6,5.01,000.00,024.1,023.2,000.0,032.5,025.9,07.5,0000.0,0001.79,0005.81,0000.78
2024-02-27 01:18:00,SystemResetWarning,0815.6,5.00,000.00,024.1,023.2,000.0,032.5,025.9,07.5,0000.0,0001.79,0005.84,0000.78
2024-02-27 01:19:00,SystemResetWarning,0815.6,5.01,000.00,024.1,023.2,000.0,032.5,025.9,07.5,0000.0,0001.73,0005.90,0000.78
2024-02-27 01:20:00,SystemResetWarning,0815.6,4.99,000.00,024.1,023.2,000.0,032.5,025.9,07.5,0000.0,0001.67,0006.55,0000.77
2024-02-27 01:21:00,SystemResetWarning,0815.6,5.00,000.00,024.1,023.2,000.0,032.5,025.9,07.6,0000.0,0001.67,0006.90,0000.78
2024-02-27 01:22:00,SystemResetWarning,0815.6,4.99,000.00,024.1,023.2,000.0,032.5,025.9,07.6,0000.0,0001.67,0007.20,0000.78
2024-02-27 01:23:00,SystemResetWarning,0815.6,5.00,000.00,024.1,023.2,000.0,032.5,025.9,07.6,0000.0,0001.72,0007.56,0000.78
2024-02-27 01:24:00,SystemResetWarning,0815.6,5.00,000.00,024.1,023.2,000.0,032.4,025.9,07.6,0000.0,0001.79,0008.17,0000.78
2024-02-27 01:25:00,SystemResetWarning,0815.6,5.01,000.00,024.1,023.2,000.0,032.4,025.9,07.6,0000.0,0001.74,0008.42,0000.79
2024-02-27 01:26:00,SystemResetWarning,0815.5,5.00,000.00,024.1,023.2,000.0,032.4,025.9,07.6,0000.0,0001.65,0008.14,0000.79
2024-02-27 01:27:00,SystemResetWarning,0815.5,5.00,000.00,024.1,023.2,000.0,032.4,025.9,07.6,0000.0,0001.68,0008.27,0000.79
2024-02-27 01:28:00,SystemResetWarning,0815.6,5.00,000.00,024.1,023.1,000.0,032.4,025.9,07.7,0000.0,0001.74,0008.64,0000.80
2024-02-27 01:29:00,SystemResetWarning,0815.6,5.01,000.00,024.1,023.1,000.0,032.4,025.8,07.7,0000.0,0001.83,0009.57,0000.81
2024-02-27 01:30:00,SystemResetWarning,0815.6,5.00,000.00,024.1,023.1,000.0,032.4,025.9,07.6,0000.0,0001.91,0009.54,0000.83
2024-02-27 01:31:00,SystemResetWarning,0815.6,5.00,000.00,024.1,023.1,000.0,032.4,025.9,07.7,0000.0,0001.97,0009.15,0000.83
2024-02-27 01:32:00,SystemResetWarning,0815.6,4.99,000.00,024.1,023.1,000.0,032.4,025.8,07.7,0000.0,0002.00,0009.22,0000.83
2024-02-27 01:33:00,SystemResetWarning,0815.6,4.99,000.00,024.1,023.1,000.0,032.4,025.7,07.7,0000.0,0002.00,0009.24,0000.83
2024-02-27 01:34:00,SystemResetWarning,0815.6,5.00,000.00,024.0,023.1,000.0,032.4,025.8,07.7,0000.0,0001.96,0009.31,0000.83
2024-02-27 01:35:00,SystemResetWarning,0815.5,5.00,000.00,024.0,023.1,000.0,032.4,025.8,07.8,0000.0,0001.96,0008.92,0000.83
2024-02-27 01:36:00,SystemResetWarning,0815.5,5.00,000.00,024.0,023.1,000.0,032.4,025.7,07.8,0000.0,0001.95,0008.44,0000.82
2024-02-27 01:37:00,SystemResetWarning,0815.5,5.00,000.00,024.0,023.1,000.0,032.4,025.7,07.8,0000.0,0001.94,0008.41,0000.81
2024-02-27 01:38:00,SystemResetWarning,0815.4,5.00,000.00,024.0,023.1,000.0,032.4,025.7,07.8,0000.0,0001.96,0008.46,0000.81
2024-02-27 01:39:00,SystemResetWarning,0815.4,5.00,000.00,024.0,023.1,000.0,032.4,025.7,07.8,0000.0,0001.92,0008.12,0000.81
2024-02-27 01:40:00,SystemResetWarning,0815.3,5.00,000.00,024.0,023.0,000.0,032.4,025.7,07.9,0000.0,0001.83,0007.13,0000.80
2024-02-27 01:41:00,SystemResetWarning,0815.3,5.00,000.00,024.0,023.0,000.0,032.4,025.7,07.9,0000.0,0001.79,0007.49,0000.78
2024-02-27 01:42:00,SystemResetWarning,0815.3,5.00,000.00,024.0,023.0,000.0,032.4,025.7,07.9,0000.0,0001.77,0007.63,0000.79
2024-02-27 01:43:00,SystemResetWarning,0815.3,5.00,000.00,024.0,023.0,000.0,032.4,025.7,07.9,0000.0,0001.71,0007.35,0000.78
2024-02-27 01:44:00,SystemResetWarning,0815.3,5.00,000.00,024.0,023.0,000.0,032.4,025.7,08.0,0000.0,0001.66,0006.57,0000.78
2024-02-27 01:45:00,SystemResetWarning,0815.2,5.00,000.00,024.0,023.0,000.0,032.4,025.7,08.0,0000.0,0001.67,0005.38,0000.79
2024-02-27 01:46:00,SystemResetWarning,0815.3,5.00,000.00,024.0,023.0,000.0,032.4,025.6,08.0,0000.0,0001.62,0005.09,0000.79
2024-02-27 01:47:00,SystemResetWarning,0815.3,5.00,000.00,023.9,023.0,000.0,032.4,025.6,08.0,0000.0,0001.57,0004.77,0000.79
2024-02-27 01:48:00,SystemResetWarning,0815.3,5.00,000.00,023.9,023.0,000.0,032.4,025.6,08.1,0000.0,0001.60,0004.61,0000.80
2024-02-27 01:49:00,SystemResetWarning,0815.3,5.00,000.00,023.9,023.0,000.0,032.4,025.6,08.1,0000.0,0001.58,0004.46,0000.80
2024-02-27 01:50:00,SystemResetWarning,0815.3,5.01,000.00,023.9,023.0,000.0,032.4,025.6,08.1,0000.0,0001.52,0006.05,0000.78
2024-02-27 01:51:00,SystemResetWarning,0815.2,5.00,000.00,023.9,023.0,000.0,032.3,025.6,08.1,0000.0,0001.51,0006.25,0000.79
2024-02-27 01:52:00,SystemResetWarning,0815.3,5.00,000.00,023.9,022.9,000.0,032.3,025.6,08.2,0000.0,0001.55,0005.94,0000.79
2024-02-27 01:53:00,SystemResetWarning,0815.2,5.00,000.00,023.9,022.9,000.0,032.3,025.6,08.2,0000.0,0001.52,0005.92,0000.78
2024-02-27 01:54:00,SystemResetWarning,0815.2,4.99,000.00,023.9,022.9,000.0,032.3,025.6,08.2,0000.0,0001.57,0007.78,0000.79
2024-02-27 01:55:00,SystemResetWarning,0815.2,5.00,000.00,023.9,022.9,000.0,032.3,025.6,08.1,0000.0,0001.62,0007.95,0000.79
2024-02-27 01:56:00,SystemResetWarning,0815.2,5.00,000.00,023.9,022.9,000.0,032.3,025.6,08.1,0000.0,0001.60,0008.42,0000.78
2024-02-27 01:57:00,SystemResetWarning,0815.3,5.00,000.00,023.9,022.9,000.0,032.3,025.6,08.2,0000.0,0001.58,0008.69,0000.77
2024-02-27 01:58:00,SystemResetWarning,0815.3,5.00,000.00,023.9,022.9,000.0,032.3,025.6,08.2,0000.0,0001.61,0008.79,0000.77
2024-02-27 01:59:00,SystemResetWarning,0815.2,5.00,000.00,023.9,022.9,000.0,032.3,025.6,08.2,0000.0,0001.65,0008.91,0000.76
